Tracking 31027 objects as of 19-Jul-2025
HD Live streaming from Space Station
objects crossing your sky now

CZ-6A DEB

Track CZ-6A DEB now!
10-day predictions


NORAD ID: 54349
Int'l Code: 2022-151CU
Perigee: 727.3 km
Apogee: 883.9 km
Inclination: 98.7 °
Period: 100.8 minutes
Semi major axis: 7176 km
RCS: Unknown
Launch date: November 11, 2022
Source: People's Republic of China (PRC)
Launch site: Taiyaun Space Center, China (TSC)

Note: This is SATELLITE DEBRIS
Your satellite tracking list
DELTA 1 DEB
Track 1 satellite(s)




NASA's NSSDC Master Catalog

Two Line Element Set (TLE):
1 54349U 22151CU  25199.85751318  .00000554  00000-0  22667-3 0  9990
2 54349  98.6910 215.0715 0109086 355.5363   4.4835 14.27995794139133
Source of the keplerian elements: AFSPC